Meteo Giornale » Osservazioni meteo Stati Uniti (USA) » Binghamton
ore: 14:03 - Osservazioni Meteo Binghamton
Lat. 42° 12' N Lon. 75° 58' W Alt. 496 metri s.l.m.
23 °C
Coperto
Temp. 24 Ore
18 °C
24 °C
Ovest/Sud-Ovest
7.4 Km/h
Dew point 22 °C
Umidità 94 %
Visibilità 14 Km
Il sole sorge alle ore 06:29
Il sole tramonta alle ore 19:38
| Data e Ora | Cielo e Fenomeni | T °C | DP °C | Um. % | Pres. hPa | Vis. km | Vento km/h | |
|---|---|---|---|---|---|---|---|---|
| Oggi h: 14:03 | Coperto | 23 | 22 | 94 | 1016 | 14 | O/SO 7.4 | |
| Oggi h: 13:53 | Coperto | 23 | 21 | 88 | 1015 | 10 | O 9.3 | |
| Oggi h: 13:34 | Coperto | 24 | 22 | 88 | 1015 | 10 | O/SO 13 | |
| Oggi h: 12:53 | Coperto | 22 | 21 | 94 | 1016 | 10 | O/SO 9.3 | |
| Oggi h: 12:40 | Coperto | 21 | 21 | 100 | 1016 | 10 | S/SO 7.4 | |
| Oggi h: 11:53 | Coperto | 21 | 20 | 94 | 1016 | 10 | S 11.1 | |
| Oggi h: 10:53 | Coperto | 21 | 20 | 94 | 1016 | 10 | N 5.5 | |
| Oggi h: 10:09 | Pioggia | 20 | 19 | 93 | 1016 | 14 | SO 14.8 | |
| Oggi h: 09:53 | Pioggia | 20 | 19 | 93 | 1016 | 10 | O/SO 13 | |
| Oggi h: 09:33 | Pioggia Foschia | 19 | 19 | 100 | 1016 | 5 | SO 9.3 | |
| Oggi h: 09:25 | Pioggia Foschia | 19 | 19 | 100 | 1016 | 5 | SO 9.3 | |
| Oggi h: 09:18 | Pioggia Foschia | 20 | 19 | 93 | 1016 | 3 | O/SO 9.3 | |
| Oggi h: 09:03 | Coperto | 20 | 19 | 93 | 1016 | 14 | O/SO 11.1 | |
| Oggi h: 08:53 | Temporale nelle vicinanze Pioggia | 20 | 19 | 93 | 1016 | 10 | O/SO 11.1 | |
| Oggi h: 08:50 | Temporale nelle vicinanze Pioggia | 20 | 19 | 93 | 1016 | 14 | O/SO 9.3 | |
| Oggi h: 08:37 | Pioggia Foschia | 20 | 19 | 93 | 1016 | 5 | SO 9.3 | |
| Oggi h: 08:14 | Temporale Foschia | 20 | 19 | 93 | 1017 | 2 | SO 13 | |
| Oggi h: 07:53 | Temporale nelle vicinanze Pioggia | 20 | 19 | 93 | 1016 | 11 | N 5.5 | |
| Oggi h: 07:44 | Temporale nelle vicinanze Pioggia | 19 | 19 | 100 | 1016 | 5 | N 0 | |
| Oggi h: 07:40 | Pioggia Foschia | 19 | 19 | 100 | 1016 | 2 | N 5.5 | |
| Oggi h: 06:53 | Pioggia | 19 | 19 | 100 | 1016 | 10 | S/SO 7.4 | |
| Oggi h: 05:53 | Foschia | 19 | 19 | 100 | 1016 | 8 | N 5.5 | |
| Oggi h: 05:45 | Foschia | 19 | 19 | 100 | 1016 | 5 | N 0 | |
| Oggi h: 05:20 | Foschia | 19 | 19 | 100 | 1016 | 5 | S/SE 7.4 | |
| Oggi h: 05:04 | Foschia | 19 | 19 | 100 | 1016 | 10 | N 5.5 | |
| Oggi h: 04:53 | Foschia | 19 | 19 | 100 | 1016 | 10 | S 7.4 | |
| Oggi h: 04:27 | Pioggia Foschia | 19 | 19 | 100 | 1017 | 8 | SO 7.4 | |
| Oggi h: 04:10 | Pioggia Foschia | 19 | 19 | 100 | 1017 | 6 | SO 7.4 | |
| Oggi h: 04:00 | Pioggia Foschia | 19 | 19 | 100 | 1017 | 10 | SO 7.4 | |
| Oggi h: 03:53 | Pioggia | 19 | 19 | 100 | 1017 | 11 | SO 7.4 | |
| Oggi h: 03:10 | Foschia | 19 | 19 | 100 | 1017 | 10 | O/SO 7.4 | |
| Oggi h: 02:53 | Foschia | 19 | 19 | 100 | 1017 | 10 | N 5.5 | |
| Oggi h: 02:46 | Foschia | 19 | 19 | 100 | 1017 | 10 | S/SO 7.4 | |
| Oggi h: 02:36 | Foschia | 19 | 18 | 93 | 1017 | 8 | N 5.5 | |
| Oggi h: 02:26 | Foschia | 18 | 18 | 100 | 1017 | 3 | N 5.5 | |
| Oggi h: 02:08 | Foschia | 19 | 18 | 93 | 1017 | 8 | N 5.5 | |
| Oggi h: 01:53 | Foschia | 18 | 18 | 100 | 1017 | 5 | N 5.5 | |
| Oggi h: 01:33 | Foschia | 18 | 18 | 100 | 1017 | 5 | N 5.5 | |
| Oggi h: 01:24 | Foschia | 18 | 18 | 100 | 1018 | 5 | N 5.5 | |
| Oggi h: 01:07 | Foschia | 18 | 18 | 100 | 1018 | 8 | N 5.5 | |
| Oggi h: 00:53 | Molto Nuvoloso | 19 | 18 | 93 | 1018 | 13 | N 5.5 | |
| Ieri h: 23:53 | Coperto | 19 | 18 | 93 | 1018 | 11 | N 0 | |
| Ieri h: 22:53 | Coperto | 19 | 18 | 93 | 1018 | 11 | N 5.5 | |
| Ieri h: 22:48 | Coperto | 18 | 18 | 100 | 1018 | 11 | N 0 | |
| Ieri h: 22:19 | Foschia | 18 | 18 | 100 | 1018 | 8 | SO 7.4 | |
| Ieri h: 22:10 | Foschia | 18 | 18 | 100 | 1018 | 3 | S/SO 7.4 | |
| Ieri h: 21:53 | Coperto | 19 | 18 | 93 | 1018 | 14 | O 7.4 | |
| Ieri h: 21:22 | Pioggia | 18 | 18 | 100 | 1018 | 11 | S 7.4 | |
| Ieri h: 21:12 | Pioggia Foschia | 18 | 18 | 100 | 1018 | 5 | S 7.4 | |
| Ieri h: 21:03 | Pioggia Foschia | 18 | 18 | 100 | 1018 | 8 | N 5.5 | |
| Ieri h: 20:53 | Pioggia Foschia | 18 | 18 | 100 | 1018 | 8 | N 5.5 | |
| Ieri h: 20:01 | Pioggia Foschia | 18 | 18 | 100 | 1018 | 8 | S/SO 7.4 | |
| Ieri h: 19:53 | Pioggia Foschia | 18 | 18 | 100 | 1018 | 6 | N 5.5 | |
| Ieri h: 18:53 | Pioggia | 18 | 18 | 100 | 1018 | 14 | N 5.5 | |
| Ieri h: 17:53 | Pioggia | 18 | 18 | 100 | 1019 | 14 | SO 7.4 | |
| Ieri h: 17:42 | Coperto | 18 | 18 | 100 | 1019 | 10 | N 5.5 | |
| Ieri h: 16:53 | Pioggia Foschia | 18 | 18 | 100 | 1019 | 8 | N 5.5 | |
| Ieri h: 16:34 | Coperto | 18 | 18 | 100 | 1019 | 10 | S 7.4 | |
| Ieri h: 15:53 | Pioggia Foschia | 18 | 17 | 93 | 1019 | 10 | N 5.5 | |
| Ieri h: 14:53 | Coperto | 18 | 17 | 93 | 1020 | 10 | S 9.3 | |



